RH
6 5 5 5 50 34 24 22 19 25 43 47 54 60 53 51 46 52 61 52 49 47 43 44 23 16 18 20 16 16 23 11 8 8 7 5 4 4 5 6 5 5 5 4 4 3 3 3 2
7 8 8 46 34 23 21 17 18 35 38 44 52 50 43 55 62 63 62 52 52 47 42 37 26 17 19 23 19 16 24 16 8 10 6 5 4 5 6 5 5 5 5 4 4 3 3 3 2
7 9 15 43 34 19 14 16 23 33 34 48 50 64 70 67 84 83 88 51 52 46 51 40 30 18 20 26 21 18 27 22 9 11 6 4 5 5 6 5 5 5 5 4 4 4 3 3 3
8 10 12 28 22 21 24 27 40 33 34 34 38 43 60 54 76 94 72 57 54 51 55 55 33 21 23 27 21 20 35 18 10 13 6 5 5 6 6 6 5 5 5 4 4 4 4 3 3
11 11 39 34 28 24 26 38 39 44 37 29 37 38 27 45 66 75 74 66 60 58 50 57 35 23 28 25 21 23 43 13 10 13 6 5 5 6 6 6 6 5 5 5 4 4 4 4 3
18 14 33 27 22 25 31 37 39 37 35 32 28 35 30 33 47 63 74 71 74 67 55 56 36 25 30 23 20 25 51 12 11 14 6 5 5 6 6 6 6 6 5 5 5 5 4 4 4
16 55 37 32 30 30 35 46 44 41 40 38 36 38 44 40 65 18 67 73 79 81 71 59 38 28 32 23 23 27 50 13 12 18 7 6 6 6 6 6 6 6 5 5 5 5 5 5 4
20 28 45 41 38 37 43 43 36 34 43 50 56 66 46 28 46 31 16 40 59 71 75 65 40 32 33 24 27 32 44 13 12 16 10 6 6 6 6 6 7 6 6 6 6 6 6 5 5
20 56 46 42 45 44 52 60 58 66 40 30 48 70 50 29 62 30 8 14 28 60 71 71 42 70 61 28 29 35 28 13 12 12 10 6 6 6 6 6 7 6 6 6 6 6 6 6 6
27 67 56 56 43 57 56 56 40 59 50 39 65 66 30 20 23 28 20 29 29 62 67 76 50 78 73 44 33 30 17 14 12 12 11 6 6 6 6 7 7 6 6 6 6 6 6 6 6
29 30 46 34 31 34 32 32 54 72 28 51 64 68 73 51 26 15 8 13 50 74 74 84 71 82 80 38 36 30 18 14 12 12 11 6 7 7 6 7 7 7 6 6 6 7 7 7 7
27 26 31 24 24 25 33 31 32 47 22 32 35 34 34 31 23 16 9 10 38 90 80 97 74 87 93 39 44 35 23 15 13 12 10 6 7 7 7 7 7 7 7 7 7 7 7 7 7
24 23 25 25 26 27 27 23 32 23 32 34 33 35 30 27 23 16 12 18 15 58 93 97 89 88 93 44 60 42 29 18 14 13 11 6 7 7 7 7 7 7 7 7 7 7 8 8 8
26 24 24 24 27 28 31 25 35 24 40 45 35 40 40 33 30 18 16 24 17 36 76 99 97 82 96 55 74 48 36 22 15 14 10 7 7 8 7 7 8 8 8 8 8 8 8 8 8
20 22 24 37 34 30 31 23 45 50 59 36 36 32 40 43 36 19 19 68 58 54 49 96 93 98 95 68 84 55 44 26 16 14 10 8 8 8 8 8 8 8 8 8 8 8 8 9 9
25 35 55 52 54 43 37 20 50 55 59 62 66 66 58 52 42 31 26 67 72 65 39 75 100 100 94 80 87 60 51 30 17 14 10 8 9 8 8 8 8 8 8 9 9 9 9 10 10
68 54 48 51 51 54 65 24 22 47 59 55 62 67 66 70 68 41 34 72 79 69 61 44 90 100 100 100 94 65 59 36 18 15 12 10 10 9 9 9 8 9 9 10 10 10 10 11 12
43 44 40 48 52 55 61 56 50 52 48 43 48 42 41 51 46 42 32 66 73 73 68 81 74 100 100 100 98 78 68 43 20 17 14 12 10 10 9 9 9 9 10 11 12 12 12 13 14
46 48 48 47 49 37 51 58 46 39 35 40 36 44 36 40 44 41 30 51 67 75 67 79 86 56 100 100 100 97 80 51 22 17 16 14 12 11 10 10 10 11 13 13 13 14 15 16 17
29 53 49 43 49 58 51 31 29 38 32 31 31 35 33 37 44 45 36 32 63 64 74 87 95 91 68 96 99 100 95 53 24 18 18 14 14 13 12 12 15 15 14 14 15 17 19 21 23
52 51 46 48 49 55 59 35 38 40 35 34 33 36 36 36 39 43 43 35 36 53 63 80 90 84 71 78 99 100 94 52 26 20 20 17 16 15 15 17 18 18 17 17 20 22 24 26 29
48 46 34 41 68 59 60 46 33 32 39 42 40 35 39 42 41 40 41 44 37 32 45 62 92 95 90 64 84 79 99 42 28 23 21 19 17 17 18 20 20 21 21 22 24 26 29 32 33
48 37 33 55 73 70 66 64 34 33 32 38 43 35 35 45 49 46 40 42 42 41 34 40 61 87 95 97 78 59 61 96 32 26 23 21 20 19 19 20 21 23 24 26 28 31 33 35 37
35 32 51 69 75 77 50 46 39 33 32 39 44 39 36 28 36 48 48 42 37 36 36 42 43 72 91 100 96 72 63 89 73 47 31 23 21 21 21 22 23 24 27 30 33 35 37 39 43
37 63 55 65 84 52 58 55 40 40 40 36 33 34 30 22 28 35 44 45 45 39 38 42 46 48 82 95 100 84 61 52 56 54 56 32 22 20 21 22 24 26 30 33 36 39 41 45 66
52 59 50 53 41 41 40 54 40 34 35 36 33 32 24 17 28 38 34 42 44 40 43 43 45 56 80 86 94 83 80 91 95 74 69 46 26 23 22 22 24 27 31 36 39 42 46 58 76
69 64 63 58 47 62 41 48 31 37 38 43 36 39 24 15 24 39 39 36 35 44 40 44 50 59 62 71 79 88 86 82 90 83 69 41 36 32 26 26 26 28 30 35 42 46 52 66 82
38 62 56 67 65 46 35 36 43 44 54 51 50 43 21 14 14 29 41 36 34 30 44 42 53 68 70 59 66 90 92 70 73 98 82 61 44 35 32 29 29 32 33 39 48 52 60 79 91
55 59 66 58 46 44 36 28 50 49 46 41 50 40 22 13 12 22 40 36 35 31 36 44 51 70 65 62 77 95 100 90 70 90 98 94 65 44 44 39 39 42 46 49 57 59 68 88 98
55 55 50 48 45 46 43 50 42 39 44 44 44 29 15 12 21 22 39 37 33 36 31 49 46 60 67 68 76 96 87 100 88 76 82 100 98 99 60 47 45 47 56 66 68 66 84 99 98
Wind_Speed
7 6 6 6 6 10 18 21 20 20 15 16 22 19 14 20 20 12 9 10 6 8 10 14 14 17 16 16 16 16 14 14 13 13 14 14 14 13 12 12 11 10 9 8 8 8 7 7 8
9 8 7 6 9 17 17 14 20 18 16 23 22 21 22 22 16 18 30 20 18 12 10 13 15 17 18 17 17 17 16 15 14 15 15 16 15 14 13 13 12 10 9 8 8 8 8 8 8
9 9 6 5 12 20 17 9 13 16 17 18 21 18 17 11 20 22 22 34 25 21 15 15 16 19 19 19 19 18 17 16 16 17 17 17 17 15 15 14 12 11 9 9 8 8 8 8 8
7 8 9 12 16 14 15 13 13 20 17 15 15 20 18 24 26 27 35 34 32 28 21 18 20 21 21 20 20 19 18 17 16 19 19 19 17 16 16 15 13 11 10 9 9 8 8 7 8
7 8 8 13 15 16 16 15 16 18 19 19 20 23 28 20 28 34 21 24 29 31 29 20 24 24 22 21 21 21 19 18 17 20 20 19 18 17 16 15 13 12 11 10 9 8 8 7 8
6 6 8 13 12 11 16 16 16 18 19 20 23 26 27 25 32 36 31 28 22 26 28 24 28 26 24 24 22 22 20 19 19 21 20 20 18 17 17 15 14 13 12 11 10 9 8 7 7
4 7 12 14 15 14 13 15 14 16 19 19 19 28 25 20 28 43 37 29 26 22 27 29 31 30 27 26 24 23 22 21 20 22 21 21 19 18 17 16 15 13 12 11 10 9 7 7 7
6 7 8 10 11 15 15 19 17 21 22 20 20 20 21 20 33 36 46 46 37 30 29 33 34 33 31 29 27 25 23 22 22 23 22 22 20 19 18 18 16 14 13 12 10 9 7 6 6
9 5 10 13 11 12 14 18 18 20 26 28 26 27 31 31 32 36 39 43 42 37 33 35 36 32 32 33 30 28 26 25 24 24 24 24 22 21 21 19 18 16 15 13 11 9 8 6 5
9 9 10 11 15 19 20 22 24 24 27 30 29 29 31 36 34 38 35 34 40 34 35 34 37 35 34 34 31 30 28 27 26 26 26 26 25 23 21 21 19 18 17 15 13 11 8 6 5
15 12 13 18 19 22 24 24 23 24 29 27 27 26 25 28 28 35 41 35 32 34 34 32 39 39 38 33 33 32 29 28 28 28 28 28 27 24 24 23 22 20 19 17 14 12 10 7 5
18 16 18 18 20 22 23 24 26 26 24 21 23 28 29 27 30 35 39 36 34 37 43 35 43 44 43 35 35 33 30 29 29 29 29 28 27 27 25 24 23 22 20 18 16 13 11 9 7
17 19 19 17 19 21 23 22 27 25 18 22 23 25 26 25 28 32 37 37 36 42 39 41 46 47 41 38 37 35 32 30 30 30 29 29 29 28 27 25 24 23 21 19 17 15 12 10 9
17 22 16 19 16 21 23 24 25 17 16 22 23 24 25 26 29 31 36 37 38 36 45 46 52 53 45 41 41 37 33 32 31 30 30 30 30 29 28 26 25 24 22 20 18 17 14 12 10
20 22 16 12 19 21 23 23 20 22 22 24 26 27 26 28 30 31 34 33 35 32 36 42 56 56 46 44 41 39 36 33 32 31 31 31 31 30 29 28 26 25 23 22 20 18 16 14 12
20 14 11 10 21 19 22 26 18 16 19 25 27 27 24 27 28 29 32 33 28 25 34 45 37 50 48 49 48 41 38 35 33 33 32 32 31 31 30 29 28 26 24 23 21 19 18 16 14
11 12 17 17 21 22 15 30 16 21 24 27 27 29 24 24 24 28 31 31 25 23 27 36 38 38 54 48 51 43 39 36 36 34 34 33 33 32 32 30 29 27 26 25 23 21 20 18 16
13 20 20 20 13 25 26 32 27 20 19 20 20 17 18 20 24 26 30 29 24 23 23 30 50 26 45 56 50 45 42 40 37 35 35 34 34 34 33 32 30 29 28 26 24 22 21 19 17
19 19 21 20 20 25 20 27 20 11 11 14 16 14 13 15 19 22 27 30 24 21 21 24 20 48 33 31 44 45 41 39 37 36 36 36 36 35 34 32 31 29 28 26 25 23 22 20 18
20 19 21 18 14 22 22 21 7 5 8 13 16 14 11 12 13 16 21 31 28 24 19 22 18 24 48 37 36 48 43 39 37 37 37 37 36 35 33 32 30 29 29 28 26 24 23 21 19
18 20 20 19 22 19 17 11 2 6 7 13 16 15 11 9 10 14 18 26 30 27 23 20 19 19 20 35 37 42 43 40 43 42 40 39 37 35 34 33 32 31 30 29 27 26 24 22 20
20 15 15 17 14 8 12 8 5 4 6 9 13 15 13 12 11 9 15 20 23 28 26 23 20 18 14 18 33 31 44 32 36 37 37 37 36 36 35 34 33 32 31 30 29 28 26 24 22
10 17 19 16 15 13 4 5 3 4 4 6 11 19 21 17 15 12 8 11 16 19 23 26 20 19 15 13 8 17 32 31 35 36 36 37 38 37 37 35 34 32 32 31 29 28 26 26 23
15 15 17 12 6 5 6 2 9 1 3 5 8 12 17 21 13 11 8 8 12 14 19 22 25 23 21 18 13 15 19 25 24 29 34 37 37 37 36 36 34 34 33 31 30 30 29 27 26
6 9 5 5 4 3 3 6 10 6 3 3 1 7 22 29 19 9 9 6 11 10 13 17 22 25 23 21 23 17 28 35 31 25 37 38 39 38 36 35 34 34 32 32 32 31 30 29 28
11 9 9 5 5 9 11 7 3 5 2 3 6 6 21 29 20 14 11 11 12 12 14 16 19 23 27 25 23 23 19 40 43 41 42 37 39 38 37 37 36 35 34 33 32 32 32 31 30
3 6 7 8 12 6 8 7 9 8 7 4 1 10 28 33 21 17 14 15 16 16 15 16 19 22 27 29 26 31 23 27 37 50 49 49 45 42 38 37 37 37 37 36 34 34 34 35 34
13 9 7 6 4 7 7 12 14 11 2 5 10 16 32 35 21 19 17 17 17 18 15 19 21 23 22 28 31 33 30 23 37 42 45 45 42 39 40 42 42 41 41 39 38 38 38 37 36
11 9 9 10 13 6 7 5 5 2 10 13 23 25 37 37 26 20 18 20 16 17 19 18 24 24 24 28 31 32 38 31 24 37 41 45 45 45 43 43 42 41 41 41 41 40 40 38 38
24 21 19 18 12 14 18 15 16 15 3 27 33 37 40 37 27 22 17 20 19 17 18 18 23 26 24 23 27 31 30 39 33 24 42 45 50 46 41 44 45 44 44 44 43 41 40 38 41
Wind_Direction
272 267 262 248 222 237 252 252 251 249 247 255 240 232 235 248 245 264 256 231 249 260 256 253 235 225 223 221 211 202 200 194 188 185 181 180 180 176 168 163 159 152 145 136 124 117 107 93 90
276 267 249 222 237 242 261 271 244 253 251 257 247 255 253 248 251 261 262 234 268 279 264 254 242 224 226 223 218 206 202 197 192 185 184 183 184 179 172 168 162 155 147 138 128 122 109 100 97
281 271 251 246 252 249 271 283 245 253 243 263 258 246 231 224 225 229 240 239 261 265 260 255 243 229 227 225 219 208 206 200 194 189 187 186 185 182 174 170 165 160 154 143 134 126 112 104 100
293 276 259 241 253 260 275 259 275 244 260 266 261 255 244 232 227 235 236 235 249 255 255 256 240 228 227 226 218 207 206 204 199 190 188 188 186 181 176 173 169 165 156 145 137 126 114 109 101
294 277 241 259 267 266 261 273 271 263 268 259 259 263 250 250 258 235 231 232 240 247 248 246 235 225 226 223 216 207 207 205 201 192 191 189 188 183 180 175 174 169 158 152 142 131 122 114 105
305 272 253 262 273 274 280 282 276 271 269 265 258 268 264 256 258 240 237 236 243 240 238 235 231 220 222 220 213 210 209 207 201 195 192 191 188 187 183 180 179 175 167 158 150 141 129 120 110
298 272 265 269 279 282 281 267 278 274 269 265 266 262 263 253 258 242 235 233 241 240 238 229 226 219 217 218 210 213 211 210 202 199 193 193 191 190 188 185 185 181 174 166 158 147 141 128 118
316 294 271 280 279 276 274 276 285 281 273 265 254 259 266 266 250 249 235 242 247 246 238 226 222 218 215 213 209 212 212 211 204 200 196 195 194 193 192 191 189 187 180 175 168 161 153 135 122
321 271 284 286 284 281 285 290 289 282 282 273 265 261 261 225 239 244 239 240 245 247 241 227 218 213 213 212 209 209 210 210 207 201 198 196 195 196 195 195 192 192 187 183 178 173 164 149 134
327 277 289 277 285 285 286 287 294 288 281 274 272 269 272 263 245 246 245 236 241 239 239 231 214 212 212 212 208 210 211 209 208 204 201 198 197 198 197 199 198 195 193 191 186 183 175 163 152
324 310 290 300 296 288 291 298 294 284 286 280 279 273 269 266 254 251 245 239 237 232 232 233 212 213 215 210 209 212 212 210 209 205 205 201 200 198 200 200 202 200 199 195 194 189 184 179 178
320 322 316 315 307 297 299 299 296 285 304 294 272 269 262 256 249 244 246 242 233 223 230 229 213 212 215 209 210 215 212 211 210 207 207 204 202 202 202 202 204 205 203 200 199 198 193 192 192
315 327 319 309 312 305 304 302 297 293 304 284 281 276 271 264 249 243 246 244 235 227 231 230 216 214 214 209 212 215 213 212 210 208 207 205 205 204 205 205 207 208 207 205 202 203 199 200 205
305 315 315 312 311 313 313 313 298 317 292 286 283 281 274 260 251 241 240 245 240 238 228 225 215 217 215 209 215 215 213 213 209 208 207 206 205 206 206 206 208 209 210 209 209 206 204 206 211
311 313 319 315 327 318 319 320 314 321 297 285 274 279 276 262 254 243 234 241 249 244 237 230 221 219 216 211 216 214 214 213 209 208 207 207 207 207 206 206 208 211 210 211 212 211 211 210 213
308 312 330 318 306 317 321 318 321 298 288 283 275 275 269 265 257 249 230 237 247 248 243 238 222 220 218 219 215 213 213 212 208 207 207 207 207 207 208 207 207 211 212 213 213 214 214 215 217
277 289 306 313 321 314 304 316 329 312 300 296 286 275 261 260 263 255 228 234 238 248 247 252 230 227 220 213 219 213 214 212 209 207 207 206 207 207 208 209 208 210 213 212 212 216 216 217 218
292 293 293 294 299 298 288 293 311 312 310 313 306 295 267 261 258 260 234 233 235 239 244 244 248 226 204 209 214 210 212 211 210 207 208 206 207 208 208 207 210 208 214 216 212 217 220 220 222
283 287 290 300 299 303 307 299 308 326 327 342 347 325 303 267 258 255 239 230 234 244 244 237 261 258 196 221 197 212 212 212 209 209 210 207 206 207 209 208 209 210 212 216 216 216 223 225 225
286 285 290 303 323 314 314 317 322 319 4 9 5 353 324 283 268 258 248 232 233 246 250 237 243 242 254 250 238 198 204 207 208 210 212 211 207 208 208 208 208 212 213 217 218 220 221 227 230
282 281 286 288 305 317 305 309 260 293 358 359 2 356 351 338 289 266 256 243 234 237 243 245 257 271 245 249 235 212 198 205 205 206 209 211 209 208 208 209 209 212 214 216 218 222 225 225 230
284 271 282 299 315 307 319 300 273 299 329 5 9 26 16 6 350 310 264 254 253 247 244 245 245 270 289 251 232 299 208 204 212 213 213 213 213 211 210 211 213 213 216 219 220 222 225 228 230
261 279 296 296 291 296 217 253 274 340 17 45 55 51 38 20 2 352 325 273 259 257 252 247 246 254 253 269 246 237 268 238 207 215 217 217 216 215 214 215 217 217 219 222 224 226 228 229 232
272 297 300 275 274 246 188 310 276 257 84 74 61 52 31 13 352 340 326 306 282 267 262 245 238 236 236 225 244 273 194 237 226 223 228 225 222 221 221 221 221 221 223 224 226 228 229 231 231
275 311 296 234 208 268 186 290 246 287 252 211 64 23 357 353 351 310 299 289 283 277 266 251 237 232 226 222 229 262 202 204 201 232 225 222 229 226 226 228 230 230 230 230 230 231 231 232 235
289 268 264 291 298 305 287 244 176 205 147 50 83 27 347 354 345 344 291 271 270 273 259 245 230 228 221 221 223 243 196 205 208 214 210 213 225 232 233 231 231 233 235 235 236 236 236 236 242
257 243 246 286 281 271 238 266 268 185 153 57 238 336 342 346 334 331 327 283 264 266 255 248 233 223 226 226 224 228 239 212 216 214 207 215 215 220 227 232 235 235 236 237 238 238 239 239 245
249 259 272 222 268 277 262 250 241 170 266 316 335 313 330 335 329 324 317 312 269 261 262 236 232 232 233 226 227 225 227 218 209 216 218 221 222 222 223 227 229 230 234 235 236 237 238 241 247
265 257 249 272 259 277 295 281 213 174 267 328 338 309 324 329 320 316 310 315 286 257 252 244 228 233 238 225 224 225 224 222 222 223 222 221 222 217 221 227 228 231 232 234 235 236 239 243 247
257 258 258 262 264 236 273 267 264 275 252 329 311 304 315 324 318 313 308 313 305 250 251 247 235 231 232 233 228 229 229 222 232 234 226 228 224 227 224 228 229 228 230 233 235 237 240 244 248